{"data":{"norad_id":68839,"intl_designator":"2026-094A","name":"STARLINK-37475","alt_names":[],"object_type":"PAYLOAD","status":"ACTIVE","operator":null,"country":"US","launch_date":"2026-04-26","launch_site_code":"AFWTR","launch_vehicle":null,"mission":null,"orbit_class":"UNKNOWN","rcs_meters":null,"size_class":null,"mass_kg":null,"dimensions":null,"purposes":["comms"],"wikipedia_slug":null,"has_3d_model":false,"image_url":null,"decayed_at":null,"tle_current":{"epoch":"2026-09-19T23:32:28.135680Z","epoch_age_seconds":60402,"freshness":"FRESH","line1":"1 68839U 26094A   26262.98088120  .00022308  00000+0  69063-3 0  9990","line2":"2 68839  97.2843 276.0432 0000389  89.7698 270.3589 15.33476077 22573","mean_motion":15.33476077,"eccentricity":3.89e-5,"inclination_deg":97.2843,"raan_deg":276.0432,"arg_perigee_deg":89.7698,"mean_anomaly_deg":270.3589,"bstar":0.00069063,"rev_number":2257,"period_min":93.904301579789,"perigee_km":465.18449719017,"apogee_km":465.71692831422,"semimajor_km":6843.5877127522,"source":"CELESTRAK","updated_at":"2026-09-20T09:00:44.013004Z"}}}